Home   Weather   Sunrise Manor   Past weeks
Flag for USA

Past Weather in Sunrise Manor, Nevada, USA — Yesterday and Last 2 Weeks

Now
56 °F

Partly sunny.


Feels Like: 56 °F
Forecast: 66 / 56 °F
Wind: No wind

Location: North Las Vegas Airport

Current Time: May 22, 2019 at 8:07:25 am

Latest Report: May 22, 2019 at 6:53 am


Visibility: 10 mi

Pressure: 29.62 "Hg (27.72 "Hg at 555m altitude)

Humidity: 53%

Dew Point: 39 °F

Location of Sunrise ManorLocation

Past Weather in Sunrise Manor — Graph

°F

Sunrise Manor Temperature Yesterday

Maximum temperature yesterday: 74 °F (at 2:53 pm)
Minimum temperature yesterday: 56 °F (at 4:53 am)
Average temperature yesterday: 64 °F

High & Low Weather Summary for the Past Weeks

 TemperatureHumidityPressure
High91 °F (May 13, 3:53 pm)90% (May 10, 1:53 am)29.96 "Hg (May 10, 1:53 am)
Low55 °F (May 17, 5:53 am)10% (May 8, 2:53 pm)29.51 "Hg (May 21, 4:53 pm)
Average70 °F33%29.79 "Hg
* Reported May 7 6:53 am — May 22 6:53 am, Sunrise Manor. Weather by CustomWeather, © 2019

Note: Actual official high and low records may vary slightly from our data, if they occured in-between our weather recording intervals... More about our weather records

Advertising

Sunrise Manor Weather History for the Previous 24 Hours

Scroll right to see more
 ConditionsComfort  
Time TempWeatherWind HumidityBarometerVisibility
6:53 am
Wed, May 22
56 °FPartly sunny.No wind53%29.62 "Hg10 mi
5:53 am56 °FSunny.3 mph53%29.60 "Hg10 mi
4:53 am56 °FClear.5 mph51%29.58 "Hg10 mi
3:53 am57 °FClear.6 mph49%29.59 "Hg10 mi
2:53 am57 °FClear.5 mph49%29.58 "Hg10 mi
1:53 am58 °FClear.3 mph47%29.60 "Hg10 mi
12:53 am58 °FClear.5 mph46%29.62 "Hg10 mi
11:53 pm
Tue, May 21
59 °FClear.7 mph44%29.62 "Hg10 mi
10:53 pm60 °FClear.7 mph44%29.62 "Hg10 mi
9:53 pm61 °FMostly cloudy.8 mph41%29.63 "Hg10 mi
8:53 pm61 °FMostly cloudy.20 mph38%29.62 "Hg10 mi
7:53 pm63 °FOvercast.26 mph33%29.58 "Hg10 mi
6:53 pm66 °FBroken clouds.22 mph29%29.55 "Hg10 mi
5:53 pm68 °FMore clouds than sun.18 mph24%29.54 "Hg10 mi
4:53 pm71 °FOvercast.25 mph19%29.51 "Hg10 mi
3:53 pm72 °FPartly sunny.16 mph19%29.52 "Hg10 mi
2:53 pm74 °FMostly cloudy.16 mph18%29.54 "Hg10 mi
1:53 pm70 °FPassing clouds.10 mph23%29.57 "Hg10 mi
12:53 pm70 °FPassing clouds.5 mph22%29.59 "Hg10 mi
11:53 am69 °FPassing clouds.14 mph22%29.61 "Hg10 mi
10:53 am66 °FSunny.8 mph26%29.63 "Hg10 mi
9:53 am64 °FSunny.9 mph29%29.63 "Hg10 mi
8:53 am62 °FSunny.3 mph30%29.66 "Hg10 mi
Weather by CustomWeather, © 2019

See weather overview